Weather Service Report


557 
ASUS44 KSJT 031311
RWRSJT
WEST CENTRAL TEXAS REGIONAL WEATHER ROUNDUP
NATIONAL WEATHER SERVICE SAN ANGELO TX
800 AM CDT THU SEP 03 2015

NOTE: "FAIR" INDICATES FEW OR NO CLOUDS BELOW 12,000 FEET WITH NO
SIGNIFICANT WEATHER AND/OR OBSTRUCTIONS TO VISIBILITY.

TXZ049-054-064>066-071>073-076>078-098-099-113-114-127-128-139-140-
154-155-168>170-031400
...LOCATIONS ACROSS WEST CENTRAL TEXAS...
  
CITY           SKY/WX    TMP DP  RH WIND       PRES   REMARKS
SAN ANGELO     CLEAR     68  60  75 CALM      29.99R                  
ABILENE        CLEAR     73  64  73 S9        30.01R                  
DYESS AFB      CLEAR     74  65  74 S7        29.99R                  
JUNCTION       CLEAR     69  66  90 CALM      30.00R                  
SWEETWATER     CLEAR     72  62  70 S10       30.04R                  
BROWNWOOD      CLEAR     68  64  88 CALM      30.00R                  
COLEMAN        SUNNY     69  65  85 CALM      30.01R                  
SONORA         CLOUDY    72  68  88 SE6       30.05S                  
OZONA          FAIR      68  63  83 S3        30.04R                  
BRADY          CLEAR     70  66  88 SE5       30.00R                  
$$

TEXAS PANHANDLE/OKLAHOMA PANHANDLE
  
CITY           SKY/WX    TMP DP  RH WIND       PRES   REMARKS
AMARILLO       CLEAR     68  55  63 SW12      29.99F                  
BORGER         CLEAR     70  56  61 S8        29.95F                  
CANADIAN       CLEAR     70  60  70 SW6       29.95R                  
DALHART        CLEAR     62  54  74 SW6       30.00S                  
DUMAS          SUNNY     70  53  54 SW14      29.97S                  
GUYMON         NOT AVBL                                               
HEREFORD       MOSUNNY   74  56  53 W14G20    30.03S                  
PAMPA          SUNNY     68  56  65 S9        29.99F                  
PERRYTON       CLEAR     69  57  63 S9        29.94S                  
$$

SOUTHERN PANHANDLE/SOUTH PLAINS/ROLLING PLAINS
  
CITY           SKY/WX    TMP DP  RH WIND       PRES   REMARKS
LUBBOCK        MOCLDY    65  55  70 SW6       30.02S                  
SNYDER         CLEAR     67  58  73 S5        30.02R                  
CHILDRESS      PTCLDY    69  59  70 SE5       29.97R                  
SEMINOLE       SUNNY     64  55  72 CALM      30.05S                  
$$

PERMIAN BASIN
  
CITY           SKY/WX    TMP DP  RH WIND       PRES   REMARKS
MIDLAND        PTCLDY    68  57  68 W5        30.03R                  
ODESSA         PTCLDY    70  58  65 CALM      30.03R                  
WINK           PTCLDY    66  57  72 N5        30.00R                  
$$

FAR WEST/SOUTHWEST MOUNTAINS/TRANS PECOS
  
CITY           SKY/WX    TMP DP  RH WIND       PRES   REMARKS
ALPINE         MOSUNNY   65  56  72 SW7       30.15S                  
DRYDEN           N/A     71  63  75 NW8       29.98R                  
EL PASO        CLOUDY    77  52  41 NW3       30.06S                  
FORT STOCKTON  CLEAR     70  59  68 S10       30.01R                  
GUADALUPE PASS PTCLDY    68  50  52 SW8       30.16S                  
MARFA          CLEAR     54  48  82 CALM      30.12S                  
PECOS          SUNNY     66  56  70 NE8       29.98R                  
$$

DALLAS/FORT WORTH METROPLEX
  
CITY           SKY/WX    TMP DP  RH WIND       PRES   REMARKS
DFW AIRPORT    MOSUNNY   77  69  76 S6        29.98R                  
FTW MEACHAM    SUNNY     75  68  78 CALM      29.98R                  
DAL-EXECUTIVE  SUNNY     74  68  81 SE7       29.98R                  
GRAND PRAIRIE  SUNNY     75  70  83 SE7       30.00R                  
ADDISON        SUNNY     77  66  69 SE9       29.99R                  
MESQUITE       SUNNY     72  68  88 SE3       29.99R                  
LANCASTER      SUNNY     73  65  76 SE3       30.00R                  
$$

NORTH CENTRAL TEXAS
  
CITY           SKY/WX    TMP DP  RH WIND       PRES   REMARKS
SHRMAN/DENISON SUNNY     75  69  79 SE5       30.00R                  
GAINESVILLE    SUNNY     72  67  83 CALM      30.01R                  
BRIDGEPORT     SUNNY     69  67  95 CALM      30.00S                  
DENTON         SUNNY     74  68  81 CALM      29.98R                  
WAXAHACHIE     SUNNY     71  69  94 SE3       30.00R                  
GRANBURY       SUNNY     74  67  78 SE5       30.00R                  
$$

WESTERN NORTH TEXAS
  
CITY           SKY/WX    TMP DP  RH WIND       PRES   REMARKS
WICHITA FALLS  PTCLDY    70  65  84 S6        29.97R                  
VERNON         SUNNY     73  59  62 S6        29.97R                  
BRECKENRIDGE   SUNNY     72  64  77 CALM      29.98R                  
COMANCHE       CLEAR     67  67 100 SE3       30.00R                  
$$

CENTRAL AND SOUTH CENTRAL TEXAS
  
CITY           SKY/WX    TMP DP  RH WIND       PRES   REMARKS
AUSTIN/BERGSTM PTSUNNY   72  69  90 CALM      29.96S                  
WACO           SUNNY     74  70  87 SE7       29.98R                  
HILLSBORO      SUNNY     73  68  85 SE7       29.99R                  
TEMPLE         MOSUNNY   72  66  83 E3        29.98R                  
KILLEEN-GRAY   PTSUNNY   71  68  90 S5        29.98R                  
FORT HOOD      PTSUNNY   72  70  94 S5        29.98R                  
GEORGETOWN     NOT AVBL                                               
LAGO VISTA     CLOUDY    73  70  89 CALM      30.00R                  
SAN MARCOS     PTSUNNY   73  68  83 NE5       29.98R                  
NEW BRAUNFELS  MOCLDY    73  71  93 NE3       29.95R                  
RANDOLPH AFB   MOCLDY    74  72  93 CALM      29.96R                  
SAN ANTONIO    PTCLDY    77  72  84 NE3       29.96S                  
STINSON        MOCLDY    77  73  87 CALM      29.93S                  
PLEASANTON     NOT AVBL                                               
LA GRANGE      CLOUDY    74  73  97 CALM      29.94S FOG              
GIDDINGS       FOG       73  71  95 CALM      30.00S VSB 1/2          
$$

EAST TEXAS
  
CITY           SKY/WX    TMP DP  RH WIND       PRES   REMARKS
PARIS          SUNNY     72  63  73 E6        30.01R                  
CLARKSVILLE    NOT AVBL                                               
TYLER          MOSUNNY   73  68  84 SE5       30.00R                  
LONGVIEW       PTSUNNY   74  70  87 CALM      30.01R                  
PALESTINE      CLOUDY    72  71  98 E3        30.01R                  
NACOGDOCHES    MOSUNNY   72  70  94 CALM      29.99S                  
$$

TEXAS HILL COUNTRY AND EDWARDS PLATEAU
  
CITY           SKY/WX    TMP DP  RH WIND       PRES   REMARKS
LLANO          SUNNY     70  68  94 CALM      30.02R                  
HORSESHOE BAY  FAIR      71  69  95 CALM      29.99R                  
KERRVILLE      CLEAR     72  69  93 E5        29.99S                  
FREDERICKSBRG  MOCLDY    71  67  89 CALM      30.00S                  
ROCKSPRINGS    SUNNY     70  68  94 CALM      30.04R                  
HONDO          CLOUDY    74  71  91 E6        29.98R                  
UVALDE         MOSUNNY   72  69  92 E3        29.96S                  
DEL RIO        CLOUDY    76  69  79 E7        29.94R                  
$$

SOUTHEAST TEXAS
  
CITY           SKY/WX    TMP DP  RH WIND       PRES   REMARKS
COLLEGE STN    CLOUDY    74  72  93 E3        29.97R                  
CALDWELL       FOG       72  72 100 CALM      30.00S VSB<1/4          
CROCKETT       CLOUDY    73  72  94 E5        30.02R                  
BRENHAM        FOG       73  73 100 CALM      29.97R VSB 1/4          
HUNTSVILLE     CLOUDY    72  72 100 CALM      29.98R FOG              
CONROE         FOG       72  71  97 E3        29.97R VSB 1/4          
HOUSTON BUSH   FOG       74  74 100 CALM      29.96R VSB 1/4          
HOUSTON HOBBY  MOSUNNY   78  75  90 CALM      29.95R                  
PERLAND        SUNNY     77  74  90 E3        29.96R                  
WHARTON        CLOUDY    73  73  97 E3        29.96R                  
$$

THE UPPER TEXAS COAST
  
CITY           SKY/WX    TMP DP  RH WIND       PRES   REMARKS
ORANGE         FOG      N/A N/A N/A CALM      29.99R VSB 1/2          
PORT ARTHUR    LGT RAIN  78  76  93 E7        29.96R                  
GALVESTON      SUNNY     81  77  88 CALM      29.95R                  
ANGLETON       CLOUDY    76  75  97 NW3       29.94R                  
BAY CITY       DRIZZLE   76  76  99 CALM      29.94R                  
$$

TEXAS COASTAL BEND, RIO GRANDE PLAINS DEEP SOUTH TEXAS
  
CITY           SKY/WX    TMP DP  RH WIND       PRES   REMARKS
VICTORIA       PTSUNNY   73  73 100 E3        29.94R                  
BEEVILLE       FAIR      69  69 100 NE3       29.93R                  
ROCKPORT       LGT RAIN  76  74  93 NW6       29.91S FOG              
PORT ARANSAS   PTSUNNY   79  76  90 NW8       29.90R                  
PORT LAVACA    NOT AVBL                                               
CORPUS CHRISTI MOSUNNY   77  75  93 N3        29.91R                  
KINGSVILLE NAS MOCLDY    74  74 100 NE3       29.91R                  
COTULLA        CLOUDY    77  73  87 E8        29.92S                  
LAREDO         CLEAR     77  74  90 E6        29.93R                  
BROWNSVILLE    SUNNY     76  74  93 CALM      29.89S                  
PORT ISABEL    SUNNY     79  76  90 CALM      29.89S                  
HEBBRONVILLE   NOT AVBL                                               
MCALLEN        CLEAR     80  76  87 E3        29.90R                  
WESLACO        CLEAR     78  75  90 CALM      29.89S                  
FALFURRIAS     PTSUNNY   74  73  94 CALM      29.91R                  
EDINBURG       SUNNY     76  74  91 CALM      29.90S FOG              
$$

Return to Home page


Western Regional Climate Center, wrcc@dri.edu